Regional Weather Roundup
Issued by NWS San Diego, CA

Current Version | Previous Version | Text Only | Print | Product List | Glossary On
Versions: 1 2 3 4 5 6 7 8 9 10 11 12 13 14 15 16 17 18 19 20 21 22 23 24 25 26 27 28 29 30 31 32 33 34 35 36 37 38 39 40 41 42 43 44 45 46 47 48 49 50
000
ASUS46 KSGX 162010
RWRSGX

SAN DIEGO HOURLY WEATHER ROUNDUP
NATIONAL WEATHER SERVICE SAN DIEGO CA
100 PM PDT TUE SEP 16 2014

NOTE: "FAIR" INDICATES FEW OR NO CLOUDS BELOW 12,000 FEET WITH NO
SIGNIFICANT WEATHER AND/OR OBSTRUCTIONS TO VISIBILITY.

CAZ042-043-060-061-PZZ750-775-162100-

GREATER SAN DIEGO AREA

CITY           SKY/WX    TMP DP  RH WIND       PRES   REMARKS
LINDBERGH FLD  MOSUNNY   89  66  46 NW10      29.73F
POINT LOMA       N/A     82  68  63 NW22        N/A
NATIONAL CITY    N/A     93  70  47 SW5       29.71F HX  98
CHULA VISTA      N/A     94  68  41 W5        29.65F HX  99
IMPERIAL BEACH MOSUNNY   85  70  60 W10       29.72F
BROWN FIELD    SUNNY    101  64  29 MISG      29.73F HX 104
MIRAMAR MCAS   MOSUNNY   95  61  32 NW9       29.73F HX  95
MONTGOMERY FLD SUNNY     99  63  30 NW10      29.73F HX 101

$$

NORTH SAN DIEGO COUNTY

CITY           SKY/WX    TMP DP  RH WIND       PRES   REMARKS
CAMP PENDLETON MOSUNNY   99  60  27 SW9       29.71F HX  99
OCEANSIDE AP   SUNNY     89  62  40 W8        29.71F
OCEANSIDE HBR    N/A     77  71  82 W7        29.75F
VISTA            N/A     96  68  39 W3        29.70F HX 100
CARLSBAD       SUNNY     85  64  49 W6        29.73F
DEL MAR          N/A     84  70  61 CALM      29.75F
FALLBROOK        N/A    103  57  21 S2        29.70F HX 103
ESCONDIDO        N/A    105  68  30 SE14      29.71F HX 111
SAN MARCOS       N/A     96  67  38 NW9       29.70F HX 101
POWAY            N/A     98  67  36 W2        29.71F HX 102

$$

EAST SAN DIEGO COUNTY

CITY           SKY/WX    TMP DP  RH WIND       PRES   REMARKS
RAMONA         MOSUNNY  101  63  28 E16G26    29.80F HX 103
SANTEE LAKES     N/A    103  69  33 W12       29.70F HX 109
LA MESA          N/A     99  69  38 NW7       29.65F HX 105
JAMUL            N/A    103  69  33 SE9       29.68F HX 109
DESCANSO N       N/A     86  63  46 E14       29.65S
MT. LAGUNA OBS   N/A     68  60  77 NE20      29.72F
CAMPO            N/A     89  63  41 NE23      29.88F

$$

ORANGE COUNTY AND THE LOS ANGELES BASIN

CITY           SKY/WX    TMP DP  RH WIND       PRES   REMARKS
JOHN WAYNE AP  MOSUNNY   97  61  30 W8        29.73F HX  97
LAGUNA BEACH     N/A     84  72  67 S3        29.70F
LAKE FOREST FR   N/A    102  53  19 CALM      29.61F HX 100
SANTA ANA        N/A     98  67  36 CALM      29.68F HX 102
HUNTINGTON BCH   N/A     81  70  68 W12       29.77F
LOS ALAMITOS   MOSUNNY   88  66  47 SW10      29.73F
FULLERTON      SUNNY     97  62  31 SW9       29.72F HX  98
LONG BEACH     SUNNY     89  64  43 S8        29.73F
L.A. AP        MOSUNNY   85  61  44 W10       29.75F
L.A. DOWNTOWN  SUNNY     95  62  33 W5        29.73S HX  96

$$

THE INLAND EMPIRE

CITY           SKY/WX    TMP DP  RH WIND       PRES   REMARKS
CORONA         SUNNY    105  59  22 W12       29.73F HX 105
CHINO          MOSUNNY  106  59  21 VRB5      29.74F HX 106
ONTARIO        MOSUNNY  105  56  19 VRB5      29.75F HX 104
SAN BERNARDINO MOSUNNY  100  55  22 NE3       29.78F HX  99
RIVERSIDE AP   SUNNY    104  57  21 CALM      29.74F HX 103
RIV CYN CREST    N/A    102  68  32 S7        29.75F HX 108
MORENO VALLEY    N/A    100  62  28 SE9       29.02F HX 101
MARCH ARB      SUNNY    100  59  25 SE2       29.80F HX  99
HORSETHIEF CYN   N/A    102  55  20 E2        29.74F HX 101
PERRIS           N/A     98  60  28 W3        29.76F HX  98
MENIFEE          N/A    101  62  27 S1        29.82F HX 103
HEMET EAST       N/A    100  56  22 CALM      29.71F HX  98
FRENCH VALLEY  FAIR     100  61  27 SE9       29.78F HX 101
TEMECULA         N/A    102  59  24 E3        29.72F HX 102

$$

SAN BERNARDINO AND RIVERSIDE COUNTY MOUNTAINS

CITY           SKY/WX    TMP DP  RH WIND       PRES   REMARKS
BIG BEAR AP    MOSUNNY   77  45  31 E7G22     30.23F
ANGELUS OAKS     N/A     76  58  54 CALM      29.69F
PINE COVE        N/A     82  52  35 CALM      29.68F

$$

SOUTHERN DESERT INCLUDING THE COACHELLA VALLEY

CITY           SKY/WX    TMP DP  RH WIND       PRES   REMARKS
PALM SPRINGS   MOSUNNY   99  69  37 E12       29.81F HX 105
THOUSAND PALMS   N/A     98  70  40 E6        29.76F HX 105
PALM DESERT      N/A    100  74  43 CALM      31.24R HX 112
THERMAL        SUNNY    101  67  32 SE12      29.76F HX 106
BLYTHE         MOSUNNY   96  65  35 SE7       29.81F HX  98
IMPERIAL AP    SUNNY     99  65  32 E10       29.76F HX 102
EL CENTRO NAS  MOSUNNY  100  66  32 E8        29.77F HX 104
YUMA AZ        CLOUDY    98  63  31 E8        29.80F HX 100
MEXICALI       PTSUNNY   97  63  32 SE3       29.80  HX  98

$$

UPPER DESERT

CITY           SKY/WX    TMP DP  RH WIND       PRES   REMARKS
VICTORVILLE AP MOSUNNY   97  43  15 SE7       29.92F
HESPERIA         N/A     96  53  22 E3        29.84F
APPLE VALLEY     N/A     98  47  17 E3        29.97F
PALMDALE       SUNNY     98  49  18 NE6       29.90F HX  95
LANCASTER      SUNNY     97  48  18 SE5       29.89F
EDWARDS AFB    MOSUNNY   97  48  18 VRB3      29.87F
DAGGETT        SUNNY    102  54  20 NE14G21   29.85F HX 100
29 PALMS N     SUNNY     95  62  33 SE12      29.96F HX  96
NEEDLES        SUNNY    100  65  31 S9G16     29.84F HX 103

$$

REGIONAL REPORTS

CITY           SKY/WX    TMP DP  RH WIND       PRES   REMARKS
SANTA BARBARA  SUNNY     79  63  57 SE10      29.75F
MT. WILSON       N/A     91  48  22 SW8         N/A
LAS VEGAS NV   MOSUNNY   98  56  24 S5        29.86F HX  96
PHOENIX AZ     LGT RAIN  83  68  60 SE15G24   29.91F
TIJUANA        MOSUNNY  102  57  22 NE9       29.75  HX 101
ENSENADA NW      N/A     85  32  14 W6        29.69F

$$

OFFSHORE ISLANDS

CITY           SKY/WX    TMP DP  RH WIND       PRES   REMARKS
CATALINA ARPT  SUNNY     92  62  36 VRB5      29.85F
SAN CLEMENTE I MOSUNNY   79  64  60 W12       29.78F
SAN NICOLAS IS MOSUNNY   82  59  45 NW24G32   29.79F

$$

MARINE AND OFFSHORE BUOY REPORTS

STATION/POSITION SKY/WX   TEMP    WIND        PRES    SWELL
                          AIR SEA DIR/SP/G            HT/PER/DIR
                          (F)     (DEG/KT/KT) (MB)    (FT/S/D)
TANNER BANKS               68 70  330/ 19/ 23 1008.8F   3/240/19
S CLEMENTE BASIN           73 75  300/ 14/ 16 1006.9F   3/240/19
SAN NICOLAS IS.               67                N/A     3/180/20
SO. S. ROSA ISLA           66 67  320/ 19/ 25 1008.7F
W. S. BARBARA CH           63 65  320/ 23/ 27 1008.2F   3/310/19
M. S. BARBARA CH           69     230/ 10       N/A
S. MONICA BASIN            74 75  260/  8/ 10 1007.2F   3/160/19
S PEDRO CHANNEL               74                N/A     2/210/20
DANA POINT                    74                N/A     3/210/20
CMP PENDLETON NS              73                N/A     2/220/20
OCEANSIDE OFFSHR              74                N/A     3/210/20
TORREY PINES OTR              76                N/A     3/210/20
LA JOLLA 1                 77 68  360/  4/  5 1007.0F
MISSION BAY BUOY              75                N/A     3/210/20
SAN DIEGO BAY                 77              1006.8F

$$



USA.gov is the U.S. government's official web portal to all federal, state and local government web resources and services.